www.pogodaiklimat.ru

Погода и климат >> Архив погоды >> Тунис >> Набель


ПОГОДА в Набеле

  • Прогноз погоды в Набеле
  • Монитор погоды в Набеле

АРХИВ ПОГОДЫ в Набеле

Время (UTC), дата Ветер
(напр.,м/с)
 
Видим.   Явления Облачность Т
(С)
Тd
(С)
f
(%)
Тe
(С)
Тes
(С)
Комфортность P
(гПа)
Po
(гПа)
Тmin
(С)
Tmax
(С)
R
(мм)
R24
(мм)
S
(см)
00 18.08 штиль 0
{5}
н/о н/о +23.4 +21.1 87 +31 +31 очень
душно
1016.2 1007.2
03 18.08 штиль 0-1
{3}
н/о н/о +23.3 +21.6 90 +31 +31 очень
душно
1014.9 1005.9
06 18.08 В 3-4
{5}
н/о н/о +25.3 +23.0 87 +34 +34 очень
душно
1015.0 1006.1 +22.3 +26.9
09 18.08 ЮВ 5-8
{9}
н/о н/о +29.2 +22.9 69 +39 +39 очень
душно
1015.6 1006.8
12 18.08 ЮВ 6-9
{12}
н/о н/о +30.4 +22.8 64 +40 +40 очень
душно
1014.9 1006.1
15 18.08 ЮВ 7-10
{10}
н/о н/о +29.4 +22.1 65 +38 +38 очень
душно
1013.8 1005.0
18 18.08 ЮВ 6-8
{11}
н/о н/о +27.5 +22.0 72 +36 +36 очень
душно
1013.6 1004.8 +30.8
21 18.08 ЮВ 5-8
{9}
н/о н/о +26.9 +22.7 78 +36 +36 очень
душно
1014.8 1005.9
00 19.08 ЮВ 5-7
{9}
н/о н/о +26.4 +22.7 80 +35 +35 очень
душно
1014.5 1005.6
03 19.08 ЮВ 5-6
{7}
н/о н/о +26.4 +23.3 83 +36 +36 очень
душно
1013.6 1004.7
06 19.08 ЮВ 6-8
{9}
н/о н/о +27.3 +23.5 80 +37 +37 очень
душно
1014.2 1005.4 +26.3 +27.5
09 19.08 ЮВ 7-10
{10}
н/о н/о +30.0 +23.4 68 +41 +41 опасность
перегрева
1014.8 1006.0
12 19.08 ЮВ 8-11
{11}
н/о н/о +30.8 +23.7 66 +42 +42 опасность
перегрева
1014.8 1006.1
15 19.08 ЮВ 7-10
{12}
н/о н/о +29.8 +23.5 69 +40 +40 очень
душно
1014.5 1005.7
18 19.08 ЮВ 6-8
{12}
н/о н/о +27.2 +23.2 79 +37 +37 очень
душно
1014.9 1006.0 +31.5
21 19.08 ЮВ 4-6
{9}
н/о н/о +26.5 +23.4 83 +36 +36 очень
душно
1016.3 1007.4
00 20.08 ЮВ 4-6
{9}
н/о н/о +26.2 +23.1 83 +35 +35 очень
душно
1016.2 1007.3
03 20.08 ЮВ 4-6
{7}
н/о н/о +25.7 +22.4 82 +34 +34 очень
душно
1015.4 1006.5
06 20.08 Ю 4-7
{7}
н/о н/о +27.0 +22.6 77 +36 +36 очень
душно
1016.1 1007.2 +25.6 +27.2
09 20.08 Ю 7-9
{9}
н/о н/о +30.4 +23.1 65 +41 +41 опасность
перегрева
1016.8 1008.0
12 20.08 Ю 7-10
{12}
н/о н/о +31.2 +22.5 60 +41 +41 опасность
перегрева
1016.5 1007.7
15 20.08 ЮВ 7-10
{12}
н/о н/о +29.6 +22.3 65 +39 +39 очень
душно
1015.8 1007.0
21 20.08 ЮВ 5-7
{9}
н/о н/о +26.6 +21.4 73 +34 +34 очень
душно
1016.7 1007.8
00 21.08 Ю 5-7
{9}
н/о н/о +26.2 +22.1 78 +34 +34 очень
душно
1016.6 1007.7
03 21.08 ЮВ 4-6
{7}
н/о н/о +26.0 +22.5 81 +34 +34 очень
душно
1016.2 1007.3
06 21.08 ЮВ 4-6
{7}
н/о н/о +27.2 +22.4 75 +36 +36 очень
душно
1017.2 1008.3 +25.8 +27.2
09 21.08 ЮВ 4-6
{8}
н/о н/о +29.8 +22.3 64 +39 +39 очень
душно
1017.6 1008.8
12 21.08 ЮВ 5-8
{9}
н/о н/о +29.9 +22.1 63 +39 +39 очень
душно
1017.0 1008.2
15 21.08 ЮВ 6-9
{10}
н/о н/о +30.0 +21.4 60 +38 +38 очень
душно
1016.2 1007.4
18 21.08 В 4-6
{10}
н/о н/о +26.8 +21.1 71 +34 +34 очень
душно
1016.1 1007.2 +31.3
21 21.08 ЮВ 4-5
{6}
н/о н/о +25.9 +21.1 75 +33 +33 очень
душно
1017.4 1008.5
00 22.08 Ю 4-5
{6}
н/о н/о +25.8 +20.4 72 +32 +32 очень
душно
1016.9 1008.0
03 22.08 Ю 2-4
{5}
н/о н/о +24.7 +20.4 77 +31 +31 очень
душно
1016.3 1007.3
06 22.08 СЗ 1-2
{5}
н/о н/о +24.5 +21.0 81 +31 +31 очень
душно
1017.0 1008.0 +22.9 +26.8
09 22.08 Ю 5-8
{8}
н/о н/о +30.1 +21.5 60 +38 +38 очень
душно
1017.5 1008.7
12 22.08 ЮВ 6-8
{9}
н/о н/о +30.5 +21.0 57 +38 +38 очень
душно
1016.8 1008.0
15 22.08 ЮВ 8-10
{11}
н/о н/о +29.3 +21.8 64 +38 +38 очень
душно
1015.8 1007.0
18 22.08 ЮВ 5-6
{11}
н/о н/о +27.0 +21.3 71 +34 +34 очень
душно
1017.0 1008.1 +31.1
21 22.08 ЮЗ 3-5
{7}
н/о н/о +26.5 +22.3 78 +35 +35 очень
душно
1018.7 1009.8
00 23.08 В 2-3
{9}
н/о н/о +25.4 +21.5 79 +32 +32 очень
душно
1015.5 1006.6
03 23.08 СЗ 2-3
{5}
н/о н/о +24.6 +22.1 86 +32 +32 очень
душно
1017.1 1008.1
06 23.08 С 2-2
{5}
н/о н/о +24.7 +21.8 84 +32 +32 очень
душно
1017.7 1008.7 +23.3 +27.0
09 23.08 Ю 4-6
{6}
н/о н/о +30.6 +21.1 57 +38 +38 очень
душно
1018.1 1009.3
12 23.08 Ю 4-6
{8}
н/о н/о +31.5 +19.5 49 +37 +37 очень
душно
1017.5 1008.7
15 23.08 Ю 3-5
{6}
н/о н/о +32.8 +20.3 48 +39 +39 очень
душно
1016.1 1007.4
18 23.08 Ю 2-3
{6}
н/о н/о +28.6 +23.5 74 +39 +39 очень
душно
1016.1 1007.3 +33.2
21 23.08 СЗ 2-4
{4}
н/о н/о +25.9 +22.6 82 +34 +34 очень
душно
1017.1 1008.2
00 24.08 СЗ 2-4
{4}
н/о н/о +24.4 +22.3 88 +32 +32 очень
душно
1017.1 1008.1
03 24.08 СЗ 2-3
{4}
н/о н/о +23.5 +21.8 90 +30 +30 очень
душно
1016.5 1007.5
06 24.08 СЗ 1-2
{4}
н/о н/о +24.0 +21.7 87 +31 +31 очень
душно
1017.0 1008.0 +23.2 +28.4
09 24.08 Ю 3-5
{6}
н/о н/о +30.7 +18.4 48 +36 +36 очень
душно
1017.3 1008.5
12 24.08 ЮВ 5-7
{7}
н/о н/о +32.8 +18.9 44 +28 +28 жарко 1016.1 1007.4
15 24.08 ЮВ 7-9
{9}
н/о н/о +31.7 +15.6 38 +34 +34 душно 1014.9 1006.1
18 24.08 ЮВ 5-6
{9}
н/о н/о +28.3 +21.3 66 +36 +36 очень
душно
1015.1 1006.3 +33.1
21 24.08 Ю 2-4
{5}
н/о н/о +27.2 +23.9 82 +37 +37 очень
душно
1016.1 1007.2

 

Местоположение метеостанции Набель (Тунис): широта 36.47 долгота 10.70 высота над уровнем моря 78 м.

В архиве по умолчанию представлена погода в Набеле за последнюю неделю. Архивные данные за месяц целиком и за предыдущие месяцы, начиная с января 2011 года, Вы можете получить, выбрав интересующий диапазон дат из раскрывающегося списка и нажав кнопку "Ввод!".


*Определитесь, кто Вы:
робот инопланетянин человек

Внимание! Время в таблицах - всемирное. Для получения местного времени необходимо прибавить поправку, которая равна 1 ч.

Смотрите также архив погоды в соседних городах и на ближайших метеорологических станциях:

Погода в Аэропорту Анфида Аммаме (Тунис) (51 км)
Погода в Келибии (Тунис) (54 км)
Погода в Могхране (Тунис) (56 км)
Погода в Тунисе (Тунис) (58 км)
Погода в Монастире (Тунис) (89 км)
Погода в Кайруане (Тунис) (104 км)
Погода в Махдии (Тунис) (113 км)
Погода в Бизерте (Тунис) (118 км)
Погода в Пантеллерии (Италия) (120 км)
Погода в Силиане (Тунис) (127 км)

Пояснения к столбцам:

Ветер - указаны скорость ветра в м/с - средняя за 10 мин, порывы в срок и между сроками (в фигурных скобках) и направление, откуда дует ветер: С - северный, СВ - северо-восточный, В - восточный, ЮВ - юго-восточный, Ю - южный, ЮЗ - юго-западный, З - западный, СЗ - северо-западный.
Видимость - горизонтальная дальность видимости в метрах или километрах. При видимости от 1 до 10 км при отсутствии осадков обычно наблюдается дымка, при ухудшении видимости до 1 км и менее - туман. В сухую погоду видимость может ухудшаться дымом, пылью или мглою.
Явления - указаны атмосферные явления, наблюдавшиеся в срок или в последний час перед сроком; фигурными скобками обозначены явления, наблюдавшиеся между сроками (за 1-3 часа до срока); квадратными скобками обозначены град или гололедные отложения с указанием их диаметра в мм.
Облачность - указаны через наклонную черту общая и нижняя облачность в баллах и высота нижней границы облаков в метрах; квадратными скобками обозначены формы облаков: Ci - перистые, Cs - перисто-слоистые, Cc - перисто-кучевые, Ac - высококучевые, As - высокослоистые, Sc - слоисто-кучевые, Ns - слоисто-дождевые, Cu - кучевые, Cb - кучево-дождевые. Подробнее классификацию облаков см. в Атласе облаков (PDF).
T - Температура воздуха - температура, измеренная на высоте 2 м над землей.
Td - Температура точки росы - температура, при понижении до которой содержащийся в воздухе водяной пар достигнет насыщения.
f - Относительная влажность воздуха - влажноcть воздуха, измеренная на высоте 2 м над землей.
Te - Эффективная температура - температура, которую ощущает одетый по сезону человек в тени. Характеристика душности погоды. При расчете учитывается влияние влажности воздуха и скорости ветра на теплоощущения человека.
Tes - Эффективная температура на солнце - температура, которую ощущает человек, с поправкой на солнечный нагрев. Характеристика знойности погоды. Зависит от высоты солнца над горизонтом, облачности и скорости ветра. Ночью, в пасмурную погоду, а также при ветре 12 м/с и более поправка равна нулю.
P - Атмосферное давление - приведенное к уровню моря атмосферное давление.
Po - Атмосферное давление - измеренное на уровне метеостанции атмосферное давление.
Tmin - Минимальная температура - минимум температуры воздуха на высоте 2 м над землей.
Tmax - Максимальная температура - максимум температуры воздуха на высоте 2 м над землей.
R - Количество осадков - Количество выпавших осадков за период времени, мм. При наведении курсора мыши на число - период времени, за который выпало указанное количество осадков.
R24 - Количество осадков - Количество выпавших осадков за 24 часа, мм.
S - Снежный покров - Высота снежного покрова, см. При наведении курсора мыши на число - состояние снежного покрова и степень покрытия местности в баллах.